Weather History for Copper Harbor, MI

Change the Weather History Date:

Saturday, June 22, 2013

  Actual Average Record
Temperature  
Mean Temperature 54 °F -  
Max Temperature 62 °F 67 °F 82 °F (2003)
Min Temperature 45 °F 47 °F 44 °F (2001)
Degree Days  
Heating Degree Days 12    
Growing Degree Days 4 (Base 50)    
Moisture  
Dew Point 52 °F    
Average Humidity 97    
Maximum Humidity 100    
Minimum Humidity 90    
Precipitation  
Precipitation 0.02 in - - ()
Sea Level Pressure  
Sea Level Pressure 30.05 in    
Wind  
Wind Speed 2 mph (SE)    
Max Wind Speed 10 mph    
Max Gust Speed -    
Averages and records for this station are not official NWS values.
T = Trace of Precipitation, MM = Missing Value Source: NWS Daily Summary

Daily Weather History Graph

Daily Weather History Graph

Search for Another Location

Airport:

Trip Planner

Search our weather history database for the weather conditions in past years. The results will help you decide how hot, cold, wet, or windy it might be!

Date:

Astronomy

Jun. 22, 2013 Rise Set
Actual Time 5:54 AM EDT 9:52 PM EDT
Civil Twilight 5:14 AM EDT 10:33 PM EDT
Nautical Twilight 4:18 AM EDT 11:29 PM EDT
Astronomical Twilight 2:49 AM EDT 12:57 AM EDT
Moon 9:02 PM EDT (6/22) 5:11 AM EDT (6/22)
Length of Visible Light 17h 18m
Length of Day
15h 57m
Waxing Gibbous, 99% of the Moon is Illuminated
Jun 22
Waxing Gibbous
Jun 23
Full
Jun 30
Last Quarter
Jul 8
New
Jul 15
First Quarter

Hourly Weather History & Observations

Time (EDT) Temp. Windchill Dew Point Humidity Pressure Visibility Wind Dir Wind Speed Gust Speed Precip Events Conditions
12:51 AM 46.0 °F - 46.0 °F 100% 30.06 in - Calm Calm - N/A   Unknown
1:51 AM 52.0 °F - 52.0 °F 100% 30.04 in - Calm Calm - N/A   Unknown
2:51 AM 50.0 °F - 48.9 °F 96% 30.03 in - Calm Calm - 0.02 in   Unknown
3:51 AM 46.0 °F - 45.0 °F 96% 30.01 in - Calm Calm - N/A   Unknown
4:51 AM 48.0 °F - 48.0 °F 100% 30.02 in - Calm Calm - N/A   Unknown
5:51 AM 51.1 °F - 50.0 °F 96% 30.02 in - SSE 3.5 mph - N/A   Unknown
6:51 AM 52.0 °F - 52.0 °F 100% 30.06 in - Calm Calm - N/A   Unknown
7:51 AM 50.0 °F - 50.0 °F 100% 30.10 in - Calm Calm - N/A   Unknown
8:51 AM 48.0 °F - 46.9 °F 96% 30.12 in - North 10.4 mph - N/A   Unknown
9:51 AM 45.0 °F 40.6 °F 44.1 °F 97% 30.12 in - North 8.1 mph - N/A   Unknown
10:51 AM 46.0 °F 42.5 °F 46.0 °F 100% 30.11 in - NNE 6.9 mph - N/A   Unknown
11:51 AM 48.9 °F - 48.9 °F 100% 30.09 in - Calm Calm - N/A   Unknown
12:51 PM 51.1 °F - 50.0 °F 96% 30.06 in - Calm Calm - N/A   Unknown
1:51 PM 48.0 °F - 48.0 °F 100% 30.06 in - Calm Calm - N/A   Unknown
2:51 PM 51.1 °F - 50.0 °F 96% 30.08 in - Calm Calm - N/A   Unknown
3:51 PM 59.0 °F - 57.9 °F 96% 30.08 in - Calm Calm - N/A   Unknown
4:51 PM 60.1 °F - 57.9 °F 93% 30.06 in - Variable 3.5 mph - N/A   Unknown
5:51 PM 60.1 °F - 57.9 °F 93% 30.04 in - South 4.6 mph - N/A   Unknown
6:51 PM 62.1 °F - 59.0 °F 90% 30.03 in - South 3.5 mph - N/A   Unknown
7:51 PM 59.0 °F - 57.9 °F 96% 30.01 in - South 3.5 mph - N/A   Unknown
8:51 PM 59.0 °F - 57.9 °F 96% 30.00 in - Variable 4.6 mph - N/A   Unknown
9:51 PM 57.9 °F - 57.0 °F 97% 29.99 in - Calm Calm - N/A   Unknown
10:51 PM 55.9 °F - 55.0 °F 97% 30.00 in - Variable 3.5 mph - N/A   Unknown
11:51 PM 53.1 °F - 52.0 °F 96% 29.99 in - Variable 4.6 mph - N/A   Unknown